^^
Meteo Knjazevac Station Historical Data
Daily Summary for December 27, 2021 Units:  English    Metric   Both
Daily Weekly Monthly Yearly Custom
  High: Low: Average:
Temperature: 36.3 °F 34.3 °F 35 °F
Dew Point: 36.1 °F 34.1 °F 34.7 °F
Humidity: 99% 99% 99%
Wind Speed: 6mph 0mph 2.4mph
Wind Gust: 12mph - -
Wind- - ESE
Pressure: 30.00 in 29.97 in -
Precipitation: 0.00 in    
Historical Graphs
 
 
Tabular Data for December 27, 2021
Time Temperature Dew Point Pressure Wind Wind Speed Wind Gust Humidity Rainfall Rate (Hourly) solar Conditions
00:00 36.3 °F 36.1 °F 30.00 in North 3 mph 8 mph 99% 0.00 in 0 W/m2
00:10 36.1 °F 35.9 °F 30.00 in North 3 mph 10 mph 99% 0.00 in 0 W/m2
00:20 36.1 °F 35.9 °F 30.00 in North 3 mph 8 mph 99% 0.00 in 0 W/m2
00:30 36 °F 35.7 °F 30.00 in NNE 5 mph 12 mph 99% 0.00 in 0 W/m2
00:40 36 °F 35.7 °F 30.00 in NNE 6 mph 10 mph 99% 0.00 in 0 W/m2
00:50 35.8 °F 35.5 °F 30.00 in North 6 mph 10 mph 99% 0.00 in 0 W/m2
01:00 35.6 °F 35.3 °F 29.99 in NNE 3 mph 12 mph 99% 0.00 in 0 W/m2
01:10 35.6 °F 35.3 °F 29.99 in NNE 5 mph 10 mph 99% 0.00 in 0 W/m2
01:20 35.6 °F 35.3 °F 29.99 in North 5 mph 10 mph 99% 0.00 in 0 W/m2
01:30 35.4 °F 35.2 °F 29.99 in NNE 3 mph 8 mph 99% 0.00 in 0 W/m2
01:40 35.5 °F 35.2 °F 29.99 in NNE 3 mph 9 mph 99% 0.00 in 0 W/m2
01:50 35.4 °F 35.2 °F 30.00 in NNE 3 mph 8 mph 99% 0.00 in 0 W/m2
02:00 35.4 °F 35.2 °F 30.00 in NNE 3 mph 7 mph 99% 0.00 in 0 W/m2
02:10 35.2 °F 35 °F 30.00 in North 3 mph 9 mph 99% 0.00 in 0 W/m2
02:20 35.1 °F 34.8 °F 30.00 in NNE 1 mph 5 mph 99% 0.00 in 0 W/m2
02:30 35.1 °F 34.8 °F 29.99 in North 1 mph 7 mph 99% 0.00 in 0 W/m2
02:40 35.1 °F 34.8 °F 29.99 in North 3 mph 7 mph 99% 0.00 in 0 W/m2
02:50 35.1 °F 34.8 °F 30.00 in NNE 2 mph 6 mph 99% 0.00 in 0 W/m2
03:00 35.1 °F 34.8 °F 29.99 in North 2 mph 8 mph 99% 0.00 in 0 W/m2
03:10 35.1 °F 34.8 °F 29.99 in North 2 mph 6 mph 99% 0.00 in 0 W/m2
03:20 34.9 °F 34.6 °F 29.99 in North 2 mph 5 mph 99% 0.00 in 0 W/m2
03:30 34.9 °F 34.6 °F 29.99 in North 1 mph 5 mph 99% 0.00 in 0 W/m2
03:40 34.9 °F 34.6 °F 29.99 in North 1 mph 5 mph 99% 0.00 in 0 W/m2
03:50 34.7 °F 34.4 °F 29.99 in North 2 mph 5 mph 99% 0.00 in 0 W/m2
04:00 34.7 °F 34.4 °F 29.98 in North 2 mph 7 mph 99% 0.00 in 0 W/m2
04:10 34.7 °F 34.4 °F 29.98 in NNE 3 mph 9 mph 99% 0.00 in 0 W/m2
04:20 34.7 °F 34.4 °F 29.98 in NNE 2 mph 6 mph 99% 0.00 in 0 W/m2
04:30 34.5 °F 34.3 °F 29.98 in North 2 mph 10 mph 99% 0.00 in 0 W/m2
04:40 34.5 °F 34.3 °F 29.98 in North 3 mph 6 mph 99% 0.00 in 0 W/m2
04:50 34.5 °F 34.3 °F 29.98 in NNE 2 mph 6 mph 99% 0.00 in 0 W/m2
05:00 34.5 °F 34.3 °F 29.98 in North 2 mph 6 mph 99% 0.00 in 0 W/m2
05:10 34.5 °F 34.3 °F 29.98 in North 2 mph 8 mph 99% 0.00 in 0 W/m2
05:20 34.5 °F 34.3 °F 29.98 in North 2 mph 6 mph 99% 0.00 in 0 W/m2
05:30 34.5 °F 34.3 °F 29.98 in NNE 2 mph 6 mph 99% 0.00 in 0 W/m2
05:40 34.5 °F 34.3 °F 29.98 in Calm   6 mph 99% 0.00 in 0 W/m2
05:50 34.5 °F 34.3 °F 29.97 in North 3 mph 5 mph 99% 0.00 in 0 W/m2
06:00 34.3 °F 34.1 °F 29.98 in North 1 mph 7 mph 99% 0.00 in 0 W/m2
06:10 34.3 °F 34.1 °F 29.98 in North 2 mph 4 mph 99% 0.00 in 0 W/m2
06:20 34.3 °F 34.1 °F 29.98 in North 2 mph 5 mph 99% 0.00 in 0 W/m2
06:30 34.3 °F 34.1 °F 29.98 in North 2 mph 5 mph 99% 0.00 in 0 W/m2
06:40 34.3 °F 34.1 °F 29.98 in North 1 mph 5 mph 99% 0.00 in 0 W/m2
06:50 34.3 °F 34.1 °F 29.98 in Calm   5 mph 99% 0.00 in 0 W/m2
07:00 34.3 °F 34.1 °F 29.98 in NNE 1 mph 2 mph 99% 0.00 in 0 W/m2
Knjazevac, Serbia
Compliments of Weather Underground - 2 mb